Racecast

Cadence Curnalia

Thomas County Central (GA) · 12 · AAAAAGA D6A1-AAAA · Compare head to head

Athlete rating 111.0 2024 XC season
Best race 131.9 TF
Races 98
Seasons 6 2020 — 2025

RankedNation #33441·GA #674·GA D6A #214·AAAAA #213·Team #5 ?

Rating scale ?
Speed rating — all races

Cross Country

XC speed rating

2024 XC 108.8

Thomas County Central (GA) · Grade 12

Date Meet Event Result Place Rating Difficulty PR/SR Flags
2024-11-02 Toombs County High School 5000m 22:32.7 87th · 2nd on team 110.6 +0.009 ★CR SR CSR
2024-09-25 Grace Christian Academy 5000m 24:09.4 3rd · 1st on team 111.7 +0.095 ★CR CSR RSR
2024-08-24 Elinor Klapp-Phipps Park 5000m 23:18.8 10th · 1st on team 108.4 +0.047 SR CSR RSR
2024-08-17 Sherwood Christian Academy 5000m 24:55.7 11th · 1st on team 104.5 +0.055 ★CR SR CSR RSR

2023 XC 117.8

Thomas County Central (GA) · Grade 11

Date Meet Event Result Place Rating Difficulty PR/SR Flags
2023-11-04 Carrollton High School 5000m 22:46 93rd · 1st on team 113.3 +0.042 ★CR CSR
2023-10-26 Tift County High School 5000m 22:25.9 5th · 1st on team 111.3 +0.006 ★CR CSR
2023-10-21 Pelham High School 5000m 21:33.2 1st · 1st on team 119.7 +0.035 ★CR CSR
2023-09-23 Cook High School 5000m 19:59.2 1st · 1st on team 119.0 -0.045 ★PR ★CR SR CSR
2023-09-16 3Y Ranch 5000m 21:07.8 4th · 1st on team 121.0 +0.019 PR ★CR SR CSR
2023-09-09 Lee County High School 5000m 22:02.1 2nd · 1st on team 115.6 +0.022 ★CR CSR
2023-08-31 Thomas County Middle School 5000m 21:35.3 1st · 1st on team 120.7 +0.000 ★CR SR CSR
2023-08-26 Elinor Klapp-Phipps Park 5000m 21:35.8 4th · 1st on team 121.4 +0.047 ★CR SR CSR RSR

2022 XC 114.1

Thomas County Central (GA) · Grade 10

Date Meet Event Result Place Rating Difficulty PR/SR Flags
2022-11-05 Carrollton High School 5000m 23:41.9 102nd · 1st on team 109.5 +0.042 CR CSR
2022-10-20 Central Middle School 5000m 22:03.3 3rd · 1st on team 114.7 +0.006 ★CR CSR
2022-10-08 Bainbridge High School 5000m 21:18 1st · 1st on team 118.1 +0.004 ★CR SR CSR RSR
2022-10-01 Abraham Baldwin Agricultural College 5000m 21:35 3rd · 1st on team 115.4 +0.006 ★CR SR CSR RSR
2022-09-22 Pelham High School 5000m 23:04.3 1st · 1st on team 112.1 +0.035 CR CSR
2022-09-17 3Y Ranch 5000m 22:25.7 5th · 1st on team 114.2 +0.019 CR CSR
2022-09-13 Central Middle School 5000m 22:16 2nd · 1st on team 115.2 +0.006 CR SR CSR RSR
2022-08-27 Elinor Klapp-Phipps Park 5000m 23:08.8 5th · 1st on team 114.0 +0.047 CR SR CSR RSR

2021 XC 113.3

Thomas County Central (GA) · Grade 9

Date Meet Event Result Place Rating Difficulty PR/SR Flags
2021-11-06 Carrollton Elementary 5000m 21:16.5 15th · 1st on team 122.9 +0.042 PR ★CR SR CSR RSR
2021-10-09 Bainbridge High School 5000m 21:52.9 1st · 1st on team 115.8 +0.004 PR CR SR CSR RSR
2021-09-25 Bishop Kenny High School 5000m 22:23.6 24th · 1st on team 112.5 +0.010 ★CR CSR
2021-09-11 Lee County High School 5000m 22:13 3rd · 1st on team 115.2 +0.022 PR CR SR CSR RSR
2021-09-02 Central Middle School 5000m 23:39.1 1st · 1st on team 107.4 +0.006 PR CR SR CSR RSR
2021-08-28 Elinor Klapp-Phipps Park 5000m 24:49.1 21st · 1st on team 106.3 +0.047 PR CR SR CSR RSR

Track & Field

TF speed rating

2025 TF 107.2

Thomas County Central (GA) · Grade 12

Date Meet Event Result Place Rating Difficulty PR/SR Flags
2025-04-05 Tommy Taylor Invitational 1600m 6:21.12 8th · 1st on team 107.5 -0.030
2025-04-05 Tommy Taylor Invitational 800m 2:40.81 6th · 1st on team 114.5 -0.030 SR RSR
2025-03-19 Packers Home Meet # 1 3200m 14:55.15 2nd · 1st on team 99.4 -0.025
2025-03-19 Packers Home Meet # 1 800m 2:49.04 4th · 1st on team 109.5 -0.025
2025-03-19 Packers Home Meet # 1 1600m 6:29 2nd · 1st on team 105.9 -0.025
2025-03-01 The Larry Clark Track and Field Invitational 800m 2:46.73 5th · 1st on team 110.1 -0.033
2025-03-01 The Larry Clark Track and Field Invitational 1600m 6:19.63 2nd · 1st on team 107.6 -0.033
2025-03-01 The Larry Clark Track and Field Invitational 3200m 14:11.58 2nd · 1st on team 103.5 -0.033 SR
2025-02-22 Jesse Forbes HS Invitational 800m 2:45.07 13th · 1st on team 111.1 -0.030 SR RSR
2025-02-22 Jesse Forbes HS Invitational 3200m 14:13.55 9th · 1st on team 102.8 -0.030 SR
2025-02-22 Jesse Forbes HS Invitational 1600m 6:19 19th · 1st on team 107.5 -0.030 SR

2024 TF 113.9

Thomas County Central (GA) · Grade 11

Date Meet Event Result Place Rating Difficulty PR/SR Flags
2024-05-04 GHSA 6A Sectional A - Regions 1,4,5,8 800m 2:32.97 11th · 1st on team 120.0 -0.031 ★PR SR
2024-04-18 GHSA 6A - Region 1 1600m 5:55.89 6th · 1st on team 116.0 -0.021 SR
2024-04-18 GHSA 6A - Region 1 3200m 14:09.95 6th · 1st on team 104.8 -0.021 SR
2024-04-18 GHSA 6A - Region 1 800m 2:33.56 3rd · 1st on team 120.9 -0.021 PR SR RSR
2024-03-28 Yellow Jacket Battle Before The Break 800m 2:41.68 1st · 1st on team 113.8 -0.031
2024-03-28 Yellow Jacket Battle Before The Break 1600m 6:18.45 1st · 1st on team 108.2 -0.031
2024-03-20 Packers Home Meet #2 800m 2:40.93 1st · 1st on team 115.0 -0.025
2024-03-20 Packers Home Meet #2 1600m 6:07.49 1st · 1st on team 112.0 -0.025 SR
2024-03-16 Bob Hayes HS Invitational 800m 2:39.04 38th · 1st on team 115.6 -0.031
2024-03-02 The Larry Clark Track and Field Invitational 800m 2:37.28 3rd · 1st on team 116.7 -0.033 PR SR RSR
2024-02-24 Jesse Forbes HS Invitational 800m 2:43.22 8th · 1st on team 113.2 -0.030 SR RSR
2024-02-24 Jesse Forbes HS Invitational 1600m 6:09.18 14th · 1st on team 111.2 -0.030 SR

2023 TF 113.7

Thomas County Central (GA) · Grade 10

Date Meet Event Result Place Rating Difficulty PR/SR Flags
2023-05-13 GHSA 6A State Championships 3200m 13:11.43 16th · 1st on team 111.8 -0.030
2023-05-13 GHSA 6A State Championships 1600m 5:48.04 12th · 1st on team 117.9 -0.030
2023-05-06 GHSA 6A Sectional A 1600m 5:48.87 8th · 1st on team 117.9 -0.025
2023-05-06 GHSA 6A Sectional A 3200m 12:50.32 8th · 1st on team 115.2 -0.025
2023-04-20 GHSA 6A - Region 1 1600m 5:46.62 3rd · 1st on team 119.7 -0.021 ★PR SR RSR
2023-04-20 GHSA 6A - Region 1 3200m 13:00.9 1st · 1st on team 114.6 -0.021
2023-04-20 GHSA 6A - Region 1 800m 2:39.97 5th · 1st on team 116.6 -0.021 PR SR
2023-04-15 Last Call for All Invitational 1600m 6:11.53 1st · 1st on team 111.3 -0.024
2023-04-15 Last Call for All Invitational 800m 2:42.89 2nd · 1st on team 114.1 -0.024
2023-04-15 Last Call for All Invitational 3200m 13:12.88 1st · 1st on team 112.6 -0.024
2023-03-24 Colony Bank Invitational 1600m 5:58.32 1st · 1st on team 114.9 -0.032
2023-03-18 Bob Hayes Invitational 1600m 5:52.48 12th · 1st on team 117.0 -0.027 SR RSR
2023-03-18 Bob Hayes Invitational 3200m 12:52.47 15th · 1st on team 114.3 -0.027
2023-03-11 Yellow Jacket Invitational 1600m 5:54.22 1st · 1st on team 115.7 -0.031 SR RSR
2023-03-11 Yellow Jacket Invitational 3200m 12:40.54 1st · 1st on team 116.1 -0.031 ★PR SR RSR
2023-03-07 Meet results → Women's 3200 Meters 13:05.67 4th · 1st on team 112.4 ★PR SR
2023-03-07 Meet results → Women's 800 Meters 2:39.5 7th · 1st on team 115.5 ★PR SR RSR
2023-03-07 Meet results → Women's 1600 Meters 5:57.7 7th · 1st on team 114.5 ★PR SR
2023-03-04 The Larry Clark Track and Field Invitational 800m 2:41.13 4th · 1st on team 114.5 -0.033 SR RSR
2023-03-04 The Larry Clark Track and Field Invitational 3200m 13:29.6 1st · 1st on team 109.7 -0.033 SR
2023-03-04 The Larry Clark Track and Field Invitational 1600m 6:04.34 2nd · 1st on team 112.8 -0.033 SR
2023-02-25 Jesse Forbes HS Invitational 3200m 14:15.12 8th · 1st on team 103.5 -0.030 SR RSR
2023-02-25 Jesse Forbes HS Invitational 800m 2:53.32 18th · 1st on team 106.4 -0.030 SR RSR
2023-02-25 Jesse Forbes HS Invitational 1600m 6:15.54 16th · 1st on team 109.2 -0.030 SR RSR

2022 TF 111.0

Thomas County Central (GA) · Grade 9

Date Meet Event Result Place Rating Difficulty PR/SR Flags
2022-05-14 GHSA State Championships 1A Public & 4A 3200m 12:56.37 11th · 1st on team 114.4 -0.031 SR
2022-05-07 GHSA 4A Sectional A - Regions 1,2,5,7 1600m 5:57.56 9th · 1st on team 116.0 -0.026
2022-05-07 GHSA 4A Sectional A - Regions 1,2,5,7 3200m 13:09.25 5th · 1st on team 113.1 -0.026
2022-04-21 GHSA Region 1-AAAA Championship 800m 2:40.62 3rd · 2nd on team 115.3 -0.031 SR RSR
2022-04-21 GHSA Region 1-AAAA Championship 800m 2:44.95 6th · 3rd on team 112.3 -0.031
2022-04-21 GHSA Region 1-AAAA Championship 1600m 5:54.97 1st · 1st on team 116.1 -0.031 SR RSR
2022-04-21 GHSA Region 1-AAAA Championship 3200m 13:08.04 1st · 1st on team 112.9 -0.031
2022-04-16 Last Call for All Invitational 3200m 13:05.42 1st · 1st on team 113.8 -0.024 SR RSR
2022-04-16 Last Call for All Invitational 800m 2:50.23 4th · 2nd on team 109.4 -0.024 SR
2022-04-16 Last Call for All Invitational 1600m 6:08.66 2nd · 1st on team 112.4 -0.024 SR
2022-03-30 Lowndes JV Meet 3200m 14:06.53 1st · 1st on team 106.1 -0.022
2022-03-30 Lowndes JV Meet 800m 2:50.86 1st · 1st on team 109.5 -0.022 SR RSR
2022-03-30 Lowndes JV Meet 1600m 6:19.98 1st · 1st on team 109.5 -0.022 SR RSR
2022-03-26 Harmon's Invitational 1600m 6:43.73 7th · 1st on team 103.0 -0.022 SR RSR
2022-03-26 Harmon's Invitational 800m 3:01.26 10th · 1st on team 103.2 -0.022 SR RSR
2022-03-26 Harmon's Invitational 3200m 13:40 2nd · 1st on team 109.4 -0.022 SR RSR

2021 TF 125.0

Thomas County (FL) · Grade 8

Date Meet Event Result Place Rating Difficulty PR/SR Flags
2021-03-25 Wakulla County T&F MS Meet 3200m 12:44.78 2nd · 1st on team 130.7 -0.007 PR R SR RSR
2021-03-25 Wakulla County T&F MS Meet 800m 2:40.21 1st · 1st on team 130.1 -0.007 PR SR
2021-03-25 Wakulla County T&F MS Meet 1600m 5:49.35 1st · 1st on team 131.9 -0.007 PR ★R SR RSR
2021-02-26 Jesse Forbes Middle School Invitational 3200m 13:34.96 1st · 1st on team 119.4 -0.030 PR SR RSR
2021-02-26 Jesse Forbes Middle School Invitational 800m 2:52.86 3rd · 1st on team 117.5 -0.030 SR
2021-02-26 Jesse Forbes Middle School Invitational 1600m 6:12.03 4th · 1st on team 120.6 -0.030 SR RSR

2020 TF 123.7

Thomas County (FL) · Grade 7

Date Meet Event Result Place Rating Difficulty PR/SR Flags
2020-03-07 Cairo Relays 400m 1:14.37 6th · 2nd on team -0.026 ★PR SR
2020-03-07 Cairo Relays 800m 2:46.38 1st · 1st on team 122.2 -0.026 PR R SR RSR
2020-03-07 Cairo Relays 1600m 6:00.64 1st · 1st on team 125.2 -0.026 PR R SR RSR